Date String (YYYY-MM-DD hh:mm:ss) UTC,Instrument flags,absolute air pressure of the measurement (hPa),sample flow rate (lpm),inlet stack bypass flow (lpm),air temperature of the measurement (°C),ambient temperature measured by the external sensor (°C),aerosol sample conditioner tube jacket temperature (°C),OPC LED temperature (°C),internal box temperature (°C),relative humidity of the measurement (%),span deviation,mass concentration of particles derived from Lorenz-Mie calculation of OPC scattering (μg/m³),mass concentration of particles derived from Lorenz-Mie calculation of OPC scattering (μg/m³),mass concentration of particles derived from Lorenz-Mie calculation of OPC scattering (μg/m³)
DateTimeUTC,F1_M11,P_M11,Q1_M11,Q2_M11,T1_M11,T2_M11,T3_M11,T4_M11,T5_M11,U1_M11,ZSPAN_M11,X2_M11,X0_M11,X1_M11
2023-08-19 15:00:00,SystemResetWarning,0834.2,5.02,000.00,028.4,026.4,000.0,036.7,029.9,35.4,0000.0,0003.05,0009.03,0002.10
2023-08-19 15:01:00,SystemResetWarning,0834.2,4.98,000.00,028.6,025.7,000.0,036.6,029.9,34.6,0000.0,0003.14,0009.21,0002.14
2023-08-19 15:02:00,SystemResetWarning,0834.2,5.01,000.00,028.7,024.4,000.0,036.5,029.6,34.7,0000.0,0003.16,0009.84,0002.16
2023-08-19 15:03:00,SystemResetWarning,0834.2,4.99,000.00,028.8,024.2,000.0,036.5,029.6,34.8,0000.0,0003.17,0010.07,0002.17
2023-08-19 15:04:00,SystemResetWarning,0834.1,5.02,000.00,028.8,024.5,000.0,036.5,029.5,35.7,0000.0,0003.19,0010.06,0002.17
2023-08-19 15:05:00,SystemResetWarning,0834.1,5.01,000.00,029.0,024.8,000.0,036.6,029.6,35.5,0000.0,0003.19,0010.08,0002.17
2023-08-19 15:06:00,SystemResetWarning,0834.2,4.99,000.00,029.3,025.3,000.0,036.7,029.9,32.5,0000.0,0003.17,0009.99,0002.16
2023-08-19 15:07:00,SystemResetWarning,0834.2,4.99,000.00,029.5,025.6,000.0,036.8,030.0,32.3,0000.0,0003.13,0009.93,0002.17
2023-08-19 15:08:00,SystemResetWarning,0834.2,5.02,000.00,029.6,026.0,000.0,036.9,030.0,31.5,0000.0,0003.13,0009.01,0002.18
2023-08-19 15:09:00,SystemResetWarning,0834.2,5.00,000.00,029.7,026.3,000.0,037.0,030.1,31.1,0000.0,0003.10,0007.97,0002.18
2023-08-19 15:10:00,SystemResetWarning,0834.2,4.99,000.00,029.8,026.3,000.0,037.1,030.1,31.0,0000.0,0003.02,0007.76,0002.19
2023-08-19 15:11:00,SystemResetWarning,0834.1,4.99,000.00,029.8,025.2,000.0,037.1,029.9,31.3,0000.0,0002.88,0007.38,0002.18
2023-08-19 15:12:00,SystemResetWarning,0834.1,5.00,000.00,029.8,024.3,000.0,037.0,029.7,31.0,0000.0,0002.77,0007.48,0002.18
2023-08-19 15:13:00,SystemResetWarning,0834.1,5.01,000.00,029.7,024.3,000.0,037.1,029.7,31.5,0000.0,0002.75,0007.64,0002.19
2023-08-19 15:14:00,SystemResetWarning,0834.1,5.01,000.00,029.6,024.7,000.0,037.2,029.7,30.6,0000.0,0002.82,0007.49,0002.22
2023-08-19 15:15:00,SystemResetWarning,0834.1,5.00,000.00,029.5,025.1,000.0,037.2,029.7,31.2,0000.0,0002.81,0007.47,0002.24
2023-08-19 15:16:00,SystemResetWarning,0834.1,5.00,000.00,029.5,025.5,000.0,037.3,029.8,32.0,0000.0,0002.86,0007.76,0002.26
2023-08-19 15:17:00,SystemResetWarning,0834.1,5.00,000.00,029.5,025.8,000.0,037.3,029.9,31.9,0000.0,0002.92,0008.27,0002.29
2023-08-19 15:18:00,SystemResetWarning,0834.1,5.00,000.00,029.5,026.2,000.0,037.4,030.0,29.8,0000.0,0003.09,0009.00,0002.30
2023-08-19 15:19:00,SystemResetWarning,0834.1,4.99,000.00,029.5,026.3,000.0,037.4,030.1,29.2,0000.0,0003.15,0009.05,0002.30
2023-08-19 15:20:00,SystemResetWarning,0834.1,4.99,000.00,029.5,025.2,000.0,037.3,029.8,29.3,0000.0,0003.20,0009.12,0002.32
2023-08-19 15:21:00,SystemResetWarning,0834.0,5.02,000.00,029.4,024.3,000.0,037.2,029.7,29.6,0000.0,0003.24,0009.22,0002.34
2023-08-19 15:22:00,SystemResetWarning,0834.1,4.99,000.00,029.4,024.3,000.0,037.2,029.6,29.3,0000.0,0003.33,0009.47,0002.37
2023-08-19 15:23:00,SystemResetWarning,0834.1,4.99,000.00,029.2,024.7,000.0,037.2,029.6,29.9,0000.0,0003.40,0010.22,0002.38
2023-08-19 15:24:00,SystemResetWarning,0834.1,5.00,000.00,029.2,025.0,000.0,037.2,029.7,30.2,0000.0,0003.44,0010.40,0002.40
2023-08-19 15:25:00,SystemResetWarning,0834.1,5.00,000.00,029.1,025.4,000.0,037.2,029.7,30.8,0000.0,0003.46,0010.17,0002.40
2023-08-19 15:26:00,SystemResetWarning,0834.1,5.00,000.00,029.1,025.8,000.0,037.3,029.8,31.0,0000.0,0003.51,0010.37,0002.41
2023-08-19 15:27:00,SystemResetWarning,0834.2,5.00,000.00,029.1,026.1,000.0,037.3,029.9,31.4,0000.0,0003.54,0010.30,0002.40
2023-08-19 15:28:00,SystemResetWarning,0834.2,4.99,000.00,029.1,026.3,000.0,037.3,030.0,32.6,0000.0,0003.53,0009.84,0002.41
2023-08-19 15:29:00,SystemResetWarning,0834.2,4.99,000.00,029.1,025.3,000.0,037.2,029.8,32.8,0000.0,0003.49,0009.65,0002.42
2023-08-19 15:30:00,SystemResetWarning,0834.2,5.01,000.00,029.0,024.2,000.0,037.0,029.6,33.1,0000.0,0003.45,0008.80,0002.43
2023-08-19 15:31:00,SystemResetWarning,0834.1,5.00,000.00,029.0,024.2,000.0,037.0,029.5,34.0,0000.0,0003.45,0009.01,0002.42
2023-08-19 15:32:00,SystemResetWarning,0834.1,4.97,000.00,028.9,024.5,000.0,037.0,029.5,35.2,0000.0,0003.48,0009.36,0002.42
2023-08-19 15:33:00,SystemResetWarning,0834.1,5.03,000.00,029.0,024.9,000.0,037.0,029.6,35.6,0000.0,0003.45,0009.51,0002.43
2023-08-19 15:34:00,SystemResetWarning,0834.1,4.99,000.00,029.2,025.3,000.0,037.0,029.9,35.5,0000.0,0003.43,0009.23,0002.42
2023-08-19 15:35:00,SystemResetWarning,0834.1,5.01,000.00,029.6,025.7,000.0,037.1,030.1,35.3,0000.0,0003.41,0008.63,0002.40
2023-08-19 15:36:00,SystemResetWarning,0834.2,4.98,000.00,029.9,026.1,000.0,037.1,030.3,34.0,0000.0,0003.38,0008.72,0002.39
2023-08-19 15:37:00,SystemResetWarning,0834.2,5.00,000.00,030.2,026.3,000.0,037.2,030.3,34.7,0000.0,0003.32,0009.14,0002.38
2023-08-19 15:38:00,SystemResetWarning,0834.1,4.98,000.00,030.3,025.4,000.0,037.2,030.1,35.0,0000.0,0003.28,0009.03,0002.37
2023-08-19 15:39:00,SystemResetWarning,0834.1,5.04,000.00,030.4,024.4,000.0,037.2,029.9,35.2,0000.0,0003.26,0009.30,0002.36
2023-08-19 15:40:00,SystemResetWarning,0834.1,5.00,000.00,030.7,024.3,000.0,037.3,030.0,34.3,0000.0,0003.20,0009.48,0002.35
2023-08-19 15:41:00,SystemResetWarning,0834.1,4.97,000.00,030.8,024.6,000.0,037.4,030.0,33.4,0000.0,0003.18,0009.44,0002.35
2023-08-19 15:42:00,SystemResetWarning,0834.1,5.02,000.00,030.8,025.0,000.0,037.5,030.0,32.3,0000.0,0003.15,0009.24,0002.35
2023-08-19 15:43:00,SystemResetWarning,0834.2,5.00,000.00,030.9,025.4,000.0,037.7,030.1,33.6,0000.0,0003.11,0009.49,0002.34
2023-08-19 15:44:00,SystemResetWarning,0834.2,5.00,000.00,030.9,025.8,000.0,037.8,030.2,34.6,0000.0,0003.04,0009.20,0002.31
2023-08-19 15:45:00,SystemResetWarning,0834.2,5.00,000.00,030.9,026.1,000.0,038.0,030.3,34.2,0000.0,0003.00,0008.87,0002.30
2023-08-19 15:46:00,SystemResetWarning,0834.3,4.98,000.00,031.0,026.0,000.0,038.0,030.3,34.3,0000.0,0003.00,0008.96,0002.31
2023-08-19 15:47:00,SystemResetWarning,0834.2,5.00,000.00,031.0,024.8,000.0,038.0,030.1,33.1,0000.0,0002.96,0008.84,0002.29
2023-08-19 15:48:00,SystemResetWarning,0834.2,5.00,000.00,030.9,024.3,000.0,038.0,030.0,33.3,0000.0,0002.91,0008.04,0002.28
2023-08-19 15:49:00,SystemResetWarning,0834.2,5.01,000.00,030.8,024.4,000.0,038.0,029.9,33.1,0000.0,0002.88,0007.91,0002.28
2023-08-19 15:50:00,SystemResetWarning,0834.2,5.01,000.00,030.6,024.7,000.0,038.1,029.9,32.7,0000.0,0002.91,0007.71,0002.28
2023-08-19 15:51:00,SystemResetWarning,0834.3,4.99,000.00,030.5,025.2,000.0,038.1,030.0,31.8,0000.0,0002.93,0006.83,0002.28
2023-08-19 15:52:00,SystemResetWarning,0834.3,5.00,000.00,030.5,025.6,000.0,038.2,030.1,31.2,0000.0,0002.92,0006.55,0002.27
2023-08-19 15:53:00,SystemResetWarning,0834.4,5.00,000.00,030.4,026.0,000.0,038.2,030.2,30.8,0000.0,0002.96,0006.56,0002.28
2023-08-19 15:54:00,SystemResetWarning,0834.4,5.01,000.00,030.4,026.2,000.0,038.2,030.2,31.7,0000.0,0002.92,0005.28,0002.28
2023-08-19 15:55:00,SystemResetWarning,0834.6,4.98,000.00,030.4,025.4,000.0,038.1,030.1,32.4,0000.0,0002.93,0004.97,0002.30
2023-08-19 15:56:00,SystemResetWarning,0834.4,5.01,000.00,030.3,024.3,000.0,038.0,030.0,32.3,0000.0,0002.92,0005.67,0002.32
2023-08-19 15:57:00,SystemResetWarning,0834.2,5.01,000.00,030.3,024.3,000.0,037.9,029.9,32.4,0000.0,0002.92,0007.03,0002.33
2023-08-19 15:58:00,SystemResetWarning,0834.2,5.01,000.00,030.1,024.5,000.0,037.9,029.9,32.5,0000.0,0003.03,0007.27,0002.38
2023-08-19 15:59:00,SystemResetWarning,0834.3,5.00,000.00,030.0,024.9,000.0,037.9,029.9,32.8,0000.0,0003.12,0007.38,0002.43
